Total_Precipitation_Accumulation
0.00 0.00 0.00 0.00 0.00 0.00 0.00 0.00 0.00 0.00 0.00 0.00 0.00 0.00 0.00 0.00 0.00 0.01 0.00 0.00 0.00 0.00 0.00 0.01 0.01 0.01 0.01 0.01 0.01 0.01 0.03 0.03 0.01 0.01 0.01 0.01 0.00 0.00 0.00 0.00 0.00 0.00 0.00 0.01 0.01 0.04 0.05 0.06 0.08
0.00 0.00 0.00 0.00 0.00 0.00 0.00 0.00 0.00 0.00 0.00 0.00 0.00 0.00 0.00 0.00 0.00 0.00 0.00 0.00 0.00 0.00 0.00 0.01 0.01 0.02 0.04 0.03 0.03 0.03 0.04 0.06 0.04 0.01 0.02 0.00 0.00 0.00 0.01 0.01 0.01 0.00 0.00 0.01 0.01 0.02 0.05 0.07 0.10
0.00 0.00 0.00 0.00 0.00 0.00 0.00 0.00 0.00 0.00 0.00 0.00 0.00 0.00 0.00 0.00 0.00 0.00 0.00 0.00 0.00 0.00 0.00 0.01 0.03 0.04 0.08 0.07 0.06 0.07 0.06 0.07 0.05 0.03 0.03 0.02 0.01 0.01 0.00 0.01 0.02 0.01 0.01 0.01 0.02 0.02 0.04 0.08 0.09
0.00 0.00 0.00 0.00 0.00 0.00 0.00 0.00 0.00 0.00 0.00 0.00 0.00 0.00 0.00 0.00 0.00 0.00 0.00 0.00 0.00 0.00 0.01 0.05 0.06 0.08 0.10 0.10 0.11 0.14 0.10 0.10 0.06 0.04 0.04 0.04 0.03 0.01 0.00 0.02 0.06 0.03 0.00 0.00 0.02 0.03 0.05 0.08 0.12
0.00 0.00 0.00 0.00 0.00 0.00 0.00 0.00 0.00 0.00 0.00 0.00 0.00 0.00 0.00 0.00 0.00 0.00 0.00 0.00 0.00 0.01 0.03 0.05 0.07 0.09 0.14 0.13 0.11 0.15 0.16 0.19 0.10 0.06 0.05 0.04 0.02 0.00 0.00 0.03 0.05 0.06 0.03 0.01 0.01 0.01 0.03 0.05 0.09
0.00 0.00 0.00 0.00 0.00 0.00 0.00 0.00 0.00 0.00 0.00 0.00 0.00 0.00 0.00 0.00 0.00 0.00 0.00 0.00 0.00 0.01 0.02 0.03 0.06 0.10 0.16 0.16 0.16 0.21 0.24 0.24 0.12 0.05 0.07 0.05 0.05 0.02 0.00 0.02 0.02 0.06 0.06 0.03 0.01 0.00 0.00 0.01 0.03
0.00 0.00 0.00 0.00 0.00 0.00 0.00 0.00 0.00 0.00 0.00 0.00 0.00 0.00 0.00 0.00 0.00 0.00 0.00 0.00 0.00 0.01 0.03 0.03 0.04 0.07 0.14 0.21 0.21 0.22 0.24 0.23 0.11 0.04 0.06 0.06 0.05 0.02 0.00 0.01 0.01 0.01 0.02 0.02 0.02 0.01 0.00 0.00 0.00
0.00 0.00 0.00 0.00 0.00 0.00 0.00 0.00 0.00 0.00 0.00 0.00 0.00 0.00 0.00 0.00 0.00 0.00 0.00 0.00 0.00 0.00 0.01 0.02 0.03 0.05 0.11 0.17 0.24 0.27 0.30 0.33 0.15 0.06 0.05 0.05 0.06 0.03 0.00 0.00 0.00 0.01 0.01 0.01 0.01 0.01 0.00 0.00 0.00
0.00 0.00 0.00 0.00 0.00 0.00 0.00 0.00 0.01 0.00 0.00 0.00 0.00 0.00 0.00 0.00 0.00 0.00 0.00 0.00 0.00 0.00 0.00 0.00 0.01 0.02 0.07 0.11 0.16 0.25 0.31 0.37 0.20 0.06 0.03 0.03 0.03 0.04 0.01 0.00 0.00 0.02 0.01 0.00 0.00 0.00 0.00 0.00 0.00
0.00 0.00 0.00 0.00 0.00 0.00 0.00 0.00 0.01 0.00 0.00 0.00 0.00 0.00 0.00 0.00 0.00 0.00 0.00 0.00 0.00 0.00 0.00 0.00 0.00 0.01 0.03 0.05 0.09 0.19 0.22 0.27 0.19 0.05 0.02 0.04 0.02 0.03 0.01 0.00 0.00 0.01 0.01 0.00 0.00 0.00 0.00 0.00 0.00
0.00 0.00 0.00 0.00 0.00 0.00 0.01 0.00 0.00 0.00 0.00 0.00 0.00 0.00 0.00 0.00 0.00 0.00 0.00 0.00 0.00 0.00 0.00 0.00 0.00 0.00 0.01 0.03 0.05 0.10 0.14 0.22 0.22 0.10 0.02 0.04 0.01 0.02 0.00 0.00 0.00 0.00 0.00 0.00 0.00 0.00 0.00 0.00 0.00
0.01 0.01 0.00 0.00 0.00 0.01 0.01 0.01 0.01 0.01 0.00 0.00 0.00 0.00 0.00 0.00 0.00 0.00 0.00 0.00 0.00 0.00 0.00 0.00 0.00 0.00 0.00 0.02 0.06 0.14 0.18 0.23 0.21 0.11 0.01 0.00 0.00 0.01 0.01 0.00 0.00 0.00 0.00 0.00 0.00 0.00 0.00 0.00 0.00
0.03 0.03 0.01 0.00 0.00 0.02 0.03 0.03 0.02 0.02 0.01 0.01 0.01 0.00 0.00 0.00 0.00 0.00 0.00 0.00 0.00 0.00 0.00 0.00 0.00 0.00 0.00 0.01 0.04 0.07 0.08 0.15 0.28 0.23 0.05 0.00 0.00 0.01 0.01 0.00 0.00 0.00 0.00 0.00 0.00 0.00 0.00 0.00 0.00
0.03 0.04 0.03 0.01 0.02 0.02 0.03 0.03 0.02 0.02 0.02 0.01 0.01 0.01 0.00 0.00 0.00 0.00 0.00 0.00 0.00 0.00 0.00 0.00 0.00 0.00 0.00 0.00 0.01 0.02 0.02 0.07 0.12 0.09 0.02 0.00 0.00 0.02 0.02 0.00 0.00 0.00 0.00 0.00 0.00 0.00 0.00 0.00 0.00
0.01 0.01 0.02 0.01 0.01 0.01 0.00 0.00 0.00 0.00 0.00 0.00 0.00 0.01 0.01 0.00 0.00 0.00 0.00 0.00 0.00 0.00 0.00 0.00 0.00 0.00 0.00 0.00 0.00 0.00 0.01 0.03 0.03 0.03 0.01 0.01 0.02 0.05 0.04 0.00 0.00 0.00 0.00 0.00 0.00 0.00 0.00 0.00 0.00
0.00 0.00 0.00 0.00 0.00 0.00 0.00 0.00 0.00 0.00 0.00 0.00 0.00 0.02 0.03 0.02 0.01 0.01 0.00 0.00 0.00 0.00 0.00 0.00 0.00 0.00 0.00 0.00 0.00 0.00 0.00 0.01 0.02 0.04 0.02 0.01 0.03 0.04 0.06 0.02 0.00 0.00 0.00 0.00 0.00 0.00 0.00 0.00 0.00
0.00 0.00 0.00 0.00 0.00 0.00 0.00 0.00 0.00 0.00 0.00 0.00 0.00 0.00 0.02 0.04 0.05 0.05 0.04 0.02 0.02 0.01 0.01 0.00 0.00 0.00 0.00 0.00 0.00 0.00 0.00 0.00 0.01 0.01 0.01 0.01 0.03 0.05 0.09 0.10 0.04 0.00 0.00 0.00 0.00 0.00 0.00 0.00 0.01
0.00 0.00 0.00 0.00 0.00 0.00 0.00 0.00 0.00 0.00 0.00 0.00 0.00 0.00 0.00 0.00 0.02 0.05 0.06 0.08 0.09 0.05 0.03 0.01 0.00 0.00 0.01 0.00 0.00 0.00 0.00 0.00 0.01 0.00 0.02 0.07 0.14 0.17 0.20 0.24 0.18 0.07 0.05 0.06 0.04 0.02 0.01 0.01 0.01
0.01 0.00 0.00 0.00 0.00 0.00 0.00 0.00 0.00 0.00 0.00 0.00 0.00 0.00 0.00 0.00 0.00 0.00 0.01 0.04 0.10 0.12 0.08 0.02 0.00 0.00 0.00 0.00 0.01 0.01 0.01 0.01 0.02 0.03 0.04 0.08 0.15 0.22 0.26 0.33 0.33 0.25 0.21 0.19 0.15 0.11 0.06 0.03 0.01
0.01 0.01 0.00 0.00 0.00 0.00 0.00 0.00 0.00 0.00 0.00 0.00 0.00 0.00 0.00 0.00 0.00 0.00 0.00 0.00 0.01 0.03 0.05 0.06 0.02 0.01 0.00 0.02 0.05 0.08 0.08 0.07 0.08 0.09 0.08 0.08 0.09 0.14 0.18 0.27 0.25 0.18 0.17 0.15 0.10 0.09 0.13 0.10 0.03
0.00 0.00 0.00 0.00 0.00 0.00 0.00 0.00 0.00 0.00 0.00 0.00 0.00 0.00 0.00 0.00 0.00 0.00 0.00 0.00 0.00 0.01 0.01 0.03 0.06 0.05 0.03 0.09 0.20 0.27 0.26 0.22 0.15 0.13 0.16 0.17 0.13 0.09 0.10 0.13 0.13 0.08 0.08 0.11 0.09 0.07 0.08 0.09 0.03
0.00 0.00 0.00 0.00 0.00 0.00 0.00 0.00 0.00 0.00 0.00 0.00 0.00 0.00 0.00 0.00 0.00 0.00 0.00 0.01 0.00 0.00 0.00 0.01 0.03 0.07 0.09 0.20 0.35 0.43 0.43 0.35 0.27 0.22 0.23 0.22 0.14 0.08 0.07 0.07 0.08 0.04 0.02 0.02 0.01 0.01 0.01 0.03 0.02
0.00 0.00 0.00 0.00 0.01 0.00 0.00 0.00 0.00 0.00 0.00 0.00 0.00 0.00 0.00 0.00 0.00 0.00 0.02 0.02 0.04 0.05 0.05 0.05 0.09 0.22 0.36 0.45 0.44 0.45 0.42 0.35 0.28 0.23 0.25 0.23 0.24 0.17 0.10 0.07 0.05 0.02 0.01 0.00 0.00 0.00 0.00 0.00 0.01
0.00 0.00 0.00 0.00 0.00 0.00 0.00 0.00 0.00 0.00 0.00 0.00 0.00 0.00 0.00 0.00 0.00 0.01 0.04 0.06 0.09 0.14 0.15 0.14 0.21 0.31 0.37 0.41 0.47 0.45 0.37 0.35 0.35 0.32 0.28 0.23 0.22 0.18 0.13 0.08 0.03 0.01 0.00 0.00 0.00 0.00 0.00 0.00 0.01
0.00 0.00 0.00 0.00 0.00 0.00 0.00 0.01 0.01 0.00 0.00 0.00 0.00 0.00 0.00 0.00 0.00 0.01 0.03 0.07 0.10 0.15 0.18 0.19 0.24 0.32 0.33 0.35 0.39 0.42 0.41 0.41 0.42 0.38 0.25 0.16 0.12 0.11 0.09 0.06 0.03 0.01 0.00 0.00 0.00 0.00 0.00 0.00 0.01
0.00 0.00 0.01 0.01 0.01 0.00 0.01 0.03 0.03 0.01 0.00 0.00 0.00 0.00 0.00 0.00 0.00 0.01 0.01 0.04 0.08 0.10 0.13 0.19 0.24 0.24 0.24 0.27 0.32 0.35 0.40 0.45 0.45 0.34 0.22 0.17 0.14 0.13 0.10 0.10 0.07 0.05 0.02 0.00 0.00 0.00 0.01 0.01 0.02
0.00 0.00 0.01 0.02 0.01 0.00 0.00 0.03 0.03 0.02 0.01 0.01 0.00 0.01 0.01 0.01 0.00 0.00 0.01 0.03 0.05 0.07 0.09 0.12 0.17 0.22 0.25 0.28 0.33 0.43 0.47 0.43 0.35 0.21 0.14 0.13 0.09 0.06 0.08 0.10 0.08 0.06 0.03 0.02 0.01 0.00 0.01 0.01 0.03
0.00 0.00 0.01 0.02 0.02 0.03 0.04 0.05 0.03 0.02 0.02 0.02 0.02 0.03 0.04 0.02 0.01 0.01 0.05 0.09 0.10 0.07 0.09 0.09 0.13 0.20 0.26 0.29 0.41 0.60 0.58 0.39 0.24 0.15 0.13 0.10 0.07 0.06 0.07 0.04 0.02 0.01 0.01 0.00 0.00 0.00 0.01 0.02 0.02
0.05 0.02 0.01 0.01 0.02 0.08 0.17 0.21 0.21 0.17 0.08 0.08 0.07 0.08 0.11 0.05 0.04 0.04 0.07 0.11 0.10 0.08 0.08 0.09 0.13 0.23 0.30 0.35 0.49 0.60 0.43 0.26 0.17 0.15 0.10 0.05 0.03 0.04 0.06 0.03 0.00 0.00 0.00 0.00 0.01 0.01 0.01 0.01 0.01
0.06 0.05 0.02 0.02 0.04 0.11 0.19 0.28 0.35 0.29 0.19 0.19 0.15 0.18 0.16 0.09 0.09 0.09 0.11 0.10 0.08 0.08 0.07 0.08 0.14 0.24 0.26 0.28 0.32 0.29 0.18 0.13 0.12 0.09 0.05 0.01 0.00 0.01 0.03 0.03 0.01 0.00 0.01 0.02 0.04 0.03 0.01 0.01 0.00